Regional Weather Roundup
Issued by NWS

Home | Current Version | Previous Version | Graphics & Text | Print | Product List | Glossary On
Versions: 1 2 3 4 5 6 7 8 9 10 11 12 13 14 15 16 17 18 19 20 21 22 23 24 25 26 27 28 29 30 31 32 33 34 35 36 37 38 39 40 41 42 43 44 45 46 47 48 49 50
165
ASUS44 KJAN 210303
RWRMS

MISSISSIPPI HOURLY WEATHER ROUNDUP
NATIONAL WEATHER SERVICE JACKSON MS
1000 PM CDT MON OCT 20 2014

NOTE: "FAIR: INDICATES FEW OR NO CLOUDS BELOW 12,000 FEET WITH NO
SIGNIFICANT WEATHER AND/OR OBSTRUCTIONS TO VISIBILITY.

MSZ001>002-007>008-010>013-018>021-025>028-034>036-210400-
NORTHWEST MISSISSIPPI

CITY           SKY/WX    TMP DP  RH WIND       PRES   REMARKS
CLARKSDALE     FAIR      57  55  94 CALM      30.06R
CLEVELAND      FAIR      59  56  89 CALM      30.05R
GREENWOOD      CLEAR     54  52  93 CALM      30.05R
GREENVILLE     CLEAR     58  53  84 CALM      30.05R
GRENADA          N/A    N/A N/A N/A MISG        N/A
OLIVE BRANCH   CLEAR     54  54 100 S5        30.05R
OXFORD         FAIR      52  50  93 CALM      30.07R
TUNICA         CLEAR     54  52  94 CALM      30.06R
$$

MSZ003>006-009-014>017-022>024-029>033-037>039-210400-
NORTHEAST MISSISSIPPI

CITY           SKY/WX    TMP DP  RH WIND       PRES   REMARKS
COLUMBUS AFB   CLEAR     54  53  97 CALM      30.04S
CORINTH        FAIR      54  52  94 CALM      30.04R
GOLDN TRIANGLE CLEAR     55  48  76 NW3       30.04S
STARKVILLE     FAIR      52  52 100 CALM      30.05R
TUPELO         CLEAR     56  53  90 CALM      30.05R
$$

MSZ040-058-210400-
CENTRAL MISSISSIPPI

CITY           SKY/WX    TMP DP  RH WIND       PRES   REMARKS
JACKSON INTL   PTCLDY    57  52  83 CALM      30.05S
JACKSON HAWKNS CLEAR     59  52  77 CALM      30.05R
MERIDIAN KEY   CLEAR     54  51  90 CALM      30.04R
MERIDIAN NAS   CLEAR     55  52  89 CALM      30.04S
RAYMOND        FAIR      55  50  82 MISG      30.05S
VICKSBURG      CLEAR     53  51  93 CALM      30.06R
$$

MSZ059>079-210400-
SOUTH MISSISSIPPI

CITY           SKY/WX    TMP DP  RH WIND       PRES   REMARKS
BROOKHAVEN     FAIR      55  54  94 CALM      30.06S
COLUMBIA         N/A    N/A N/A N/A MISG        N/A
HATTIESBURG    CLEAR     56  54  93 CALM      30.05R
MCCOMB         CLEAR     57  52  83 CALM      30.04R
NATCHEZ        CLEAR     57  54  88 CALM      30.06R
PINE BELT      CLEAR     54  50  87 CALM      30.05R
$$

MSZ080>082-210400-
COASTAL MISSISSIPPI

CITY           SKY/WX    TMP DP  RH WIND       PRES   REMARKS
BILOXI         CLEAR     64  54  71 CALM      30.02R
PASCAGOULA     CLEAR     51  50  96 CALM      30.02R
GULFPORT       CLEAR     59  54  83 CALM      30.02R
$$



USA.gov is the U.S. government's official web portal to all federal, state and local government web resources and services.